Regional Weather Roundup
Issued by NWS Grand Forks, ND

Current Version | Previous Version | Text Only | Print | Product List | Glossary On
Versions: 1 2 3 4 5 6 7 8 9 10 11 12 13 14 15 16 17 18 19 20 21 22 23 24 25 26 27 28 29 30 31 32 33 34 35 36 37 38 39 40 41 42 43 44 45 46 47 48 49 50
000
ASUS43 KFGF 310131
RWRFGF
PRAIRIE TO PINES  WEATHER ROUNDUP
NATIONAL WEATHER SERVICE EASTERN NORTH DAKOTA/GRAND FORKS ND
800 PM CDT THU JUL 30 2015

 **SATELLITE DATA USED TO AUGMENT SKY COVER AT AUTOMATED STATIONS**
 *****  WEATHER ACROSS EASTERN NORTH DAKOTA  *****

CITY           SKY/WX    TMP DP  RH WIND       PRES   REMARKS
GRAND FORKS    PTCLDY    77  55  46 NW12      29.98R
GRAND FRKS AFB CLEAR     75  53  45 NW13G22   30.00R
GRAND FRKS NWS   N/A     75 N/A N/A NW12        N/A
DEVILS LAKE    SUNNY     73  48  40 NW12      30.04S
FARGO          CLEAR     79  55  43 W10       30.01S
WAHPETON ARPT  CLEAR     77  52  41 NW7       30.03S
$$

 ***** WEATHER ACROSS CENTRAL AND WESTERN NORTH DAKOTA  *****

CITY           SKY/WX    TMP DP  RH WIND       PRES   REMARKS
BISMARCK       SUNNY     81  46  29 N10       30.12F
MINOT          SUNNY     75  47  36 NW14      30.11S
JAMESTOWN      SUNNY     77  51  40 NW14      30.07S
MINOT AFB      SUNNY     79  46  31 NW15      30.10R
GARRISON         N/A     76  53  44 N8        30.12F
WILLISTON      SUNNY     82  42  24 N10       30.13F
DICKINSON      SUNNY     80  44  27 N7        30.15S
HETTINGER      SUNNY     83  42  23 N8        30.17F
$$

 *****  OTHER AIRPORT OBSERVATIONS IN OUR AREA  *****

CITY           SKY/WX    TMP DP  RH WIND       PRES   REMARKS
WALHALLA       FAIR      72  50  46 MISG      29.99R
GRAFTON AIRPOR FAIR      75  52  43 W20       29.99R
VALLEY CITY AR FAIR      75  55  50 W8        30.05S
CANDO          FAIR      70  50  49 NW8       30.06S
CAVALIER APRT  FAIR      73  48  40 NW13G23   29.98R
GWINNER        FAIR      79  55  44 NW8       30.07R
SHEYENNE NWR     N/A     80  54  39 NW7       29.95S
ROLLA          FAIR      66  50  55 NW10      30.08S
 ***** THE ABOVE OBSERVATIONS ARE NON NWS ARE NOT QUALITY
       CONTROLLED AND MAY MIS-REPORT RAIN FOR SNOW...
$$

  *****  WEATHER ACROSS NORTHERN MINNESOTA  *****

CITY           SKY/WX    TMP DP  RH WIND       PRES   REMARKS
FLAG ISLAND    CLOUDY    70  54  56 W10       29.88R
WARROAD        PTCLDY    70  61  73 W5        29.92S
ROSEAU         CLEAR     73  59  60 NW8       29.92R
HALLOCK        PTCLDY    73  50  43 W10       29.95R
THF RVR FALLS  PTCLDY    73  54  49 W13       29.97R
BAUDETTE       PTCLDY    70  56  61 W6        29.91R
WASKISH        PTCLDY    73  61  64 W14       29.92S
CROOKSTON      PTCLDY    75  57  53 NW13      29.98R
$$
  *****  WEATHER ACROSS CENTRAL AND WEST MINNESOTA  *****

CITY           SKY/WX    TMP DP  RH WIND       PRES   REMARKS
FOSSTON        PTCLDY    72  54  53 W8        29.99S
BEMIDJI        PTCLDY    74  55  51 W12       29.97S
PARK RAPIDS    CLEAR     76  55  48 W14       30.00S
ELBOW LAKE     FAIR      73  59  61 W6        30.03F
WADENA         CLEAR     73  54  49 W8        30.01F
DETROIT LAKES  CLEAR     75  55  50 W10       30.03S
MOORHEAD       CLEAR     75  55  50 NW8       30.02S
FERGUS FALLS   CLEAR     73  59  60 NW7       30.02R
MORRIS MN      CLEAR     75  61  60 NW7       30.03S
STAPLES        PTCLDY    73  54  49 W7        30.01S
$$
  *****  WEATHER ELSEWHERE ACROSS MINNESOTA  *****

CITY           SKY/WX    TMP DP  RH WIND       PRES   REMARKS
DULUTH         PTCLDY    76  54  46 W9        29.93S
INTRNTL FALLS  CLEAR     72  54  53 W10       29.88S
ELY            PTCLDY    72  54  53 W6        29.89R
CLOQUET        CLEAR     75  48  38 W10       29.95R
WHEATON        CLEAR     73  59  60 W6        30.06S
BRAINERD       CLEAR     77  52  41 NW12      29.99S
HIBBING        CLEAR     75  52  44 W8        29.93S
ALEXANDRIA     CLEAR     77  57  50 NW10      30.05S
SAINT CLOUD    CLEAR     79  56  45 W12G21    30.00F
MINNEAPOLIS    CLEAR     81  58  45 W12       30.01S
$$

  *****  WEATHER ACROSS SOUTH DAKOTA  *****

CITY           SKY/WX    TMP DP  RH WIND       PRES   REMARKS
SIOUX FALLS    PTCLDY    82  61  48 W3        30.09F
BROOKINGS      CLEAR     79  61  53 SW6       30.10F
WATERTOWN      CLEAR     80  59  48 W6        30.08S
HURON          CLEAR     84  62  47 W3        30.06F
SISSETON         N/A     77  63  61 N7        30.04S
ABERDEEN       CLEAR     82  54  37 N10       30.08R
MITCHELL       CLEAR     84  64  50 E3        30.09S
PIERRE         SUNNY     86  51  29 N6        30.07F
MOBRIDGE       SUNNY     83  54  36 N7        30.09S
RAPID CITY     SUNNY     83  48  29 CALM      30.20F
$$

  *****  SOME WEATHER IN NEARBY STATES *****

CITY           SKY/WX    TMP DP  RH WIND       PRES   REMARKS
GLASGOW MT     SUNNY     84  41  21 NW12      30.13F
GREAT FALLS MT SUNNY     85  36  17 E7        30.18F
CHEYENNE WY    SUNNY     80  41  24 NE9       30.34S
SCOTTSBLUFF NE SUNNY     85  54  34 NE6       30.21S
OMAHA NE       PTCLDY    86  66  51 NE3       30.10S
DES MOINES IA  PTCLDY    82  65  56 W6        30.09S
DAVENPORT IA   CLEAR     77  68  73 W6        30.05S
CHICAGO IL     CLEAR     83  55  38 W13       29.99S
EAU CLAIRE WI  CLEAR     77  57  50 W7        29.98S
LA CROSSE WI   CLEAR     80  58  46 W9        30.00S
$$

  *****  SOME NATIONAL WEATHER *****

CITY           SKY/WX    TMP DP  RH WIND       PRES   REMARKS
LA GUARDIA NY  MOCLDY    78  71  79 S8        29.82R
RALEIGH NC     MOCLDY    84  75  74 CALM      29.89R HX  92
ATLANTA GA     MOCLDY    80  71  74 NW6       29.94R
NEW ORLEANS LA LGT RAIN  79  75  87 W6        29.96R
OKLAHOMA CITY  MOCLDY    85  73  67 NE12      30.10R HX  91
ALBUQUERQUE NM CLOUDY    77  56  48 E15       30.29S
SALT LAKE CITY MOSUNNY   91  23   8 NW9       30.19F
LOS ANGELES CA MOSUNNY   73  66  78 W13       29.97F
BOISE ID       SUNNY     93  34  12 VRB5      30.12F
SEATTLE WA     SUNNY     92  44  19 N10       30.03F
$$

*** WEATHER ACROSS MANITOBA...SASKATCHEWAN AND ONTARIO ***
                ***ONTARIO***

CITY           SKY/WX    TMP DP  RH WIND       PRES   REMARKS
GERALDTON      MOCLDY    61  59  94 SW3       29.71F
THUNDER BAY    MOCLDY    63  59  88 W15       29.83S
SIOUX LOOKOUT  MOCLDY    63  57  82 W8        29.80F
TORONTO        PTCLDY    77  55  47 W12       29.84S
BIG TROUT LK   MOCLDY    63  54  72 NW12G18   29.61S
PICKLE LAKE    PTCLDY    66  52  59 NW6       29.72R
DRYDEN         LGT RAIN  61  57  88 SW6       29.83F
KENORA         LGT RAIN  61  57  88 W7        29.90R
$$
                *** MANITOBA***

CITY           SKY/WX    TMP DP  RH WIND       PRES   REMARKS
BRANDON        MOSUNNY   72  52  49 NW12G21   30.02F
DAUPHIN        CLOUDY    72  52  49 NW13G18   29.96R
ISLAND LAKE    MOCLDY    66  55  68 NW6       29.74F
PILOT MOUND      N/A     68  50  52 W10G18      N/A
THE PAS        PTSUNNY   63  55  77 N6        29.90S
THOMPSON       PTSUNNY   68  50  52 N9        29.78R
WINNIPEG       MOSUNNY   68  61  77 W9        29.92R
LYNN LAKE      PTSUNNY   72  46  40 NW10      29.83S
CHURCHILL      PTSUNNY   54  50  87 N9        29.67F
GILLAM         PTSUNNY   66  55  68 NW14      29.71S
$$
                ***SASKATCHEWAN***

CITY           SKY/WX    TMP DP  RH WIND       PRES   REMARKS
ESTEVAN        MOSUNNY   73  50  43 NW12G17   30.13F
KINDERSLEY     MOSUNNY   75  39  27 N12G21    30.13
LLOYDMINSTER   MOSUNNY   72  41  33 W12       30.12S
PRINCE ALBERT  MOSUNNY   73  48  40 NW9G18    30.01S
REGINA         MOSUNNY   75  54  46 NW9       30.11F
YORKTON        SUNNY     70  50  49 NW14G20   30.04S
N. BATTLEFORD  SUNNY     72  43  35 NW17      30.11S
LA RONGE       TSTM      61  54  77 NW12G20   30.00R
SASKATOON      MOSUNNY   73  46  38 NW13G20   30.09S
SWIFT CURRENT  SUNNY     77  43  29 NW7       30.14F
$$
NOTE: THESE ARE AUTOMATED STATIONS WITH LIMITED QUALITY CONTROL
      "FAIR" INDICATES FEW OR NO CLOUDS BELOW 12,000 FEET WITH NO
      SIGNIFICANT WEATHER AND/OR OBSTRUCTIONS TO VISIBILITY.
      SKY/WX - SKY CONDITION AND SIGNIFICANT WEATHER.
      TMP - AIR TEMPERATURE.    DP   - DEWPOINT TEMPERATURE.
      RH  - RELATIVE HUMIDITY.  PRES - PRESSURE.
      HX  - HEAT INDEX.         WCI  - WIND CHILL INDEX.
$


USA.gov is the U.S. government's official web portal to all federal, state and local government web resources and services.